Skip Page Navigation
NASA JPL Caltech
NASA Logo - Jet Propulsion Laboratory + View the NASA Portal
+ Center for Near-Earth Object Studies
JPL Home Earth Solar System Stars & Galaxies Technology
JPL Solar System Dynamics
BODIES ORBITS EPHEMERIDES TOOLS PHYSICAL DATA DISCOVERY FAQ SITE MAP
JPL Small-Body Database Browser
Search: [ help ]  
324628 (2007 BY6)
Classification: Main-belt Asteroid          SPK-ID: 2324628
Ephemeris | Orbit Diagram | Orbital Elements | Mission Design | Physical Parameters | Discovery Circumstances | Close-Approach Data ]

[ show orbit diagram ]
Orbital Elements at Epoch 2459000.5 (2020-May-31.0) TDB
Reference: JPL 12 (heliocentric ecliptic J2000)
 Element Value Uncertainty (1-sigma)   Units 
e .1946434935263865 5.3784e-08  
a 2.797005336209083 3.7723e-08 au
q 2.252586446157402 1.4477e-07 au
i 12.37799165504649 5.7613e-06 deg
node 148.6207566834733 3.1089e-05 deg
peri 3.068606388239606 4.4117e-05 deg
M 304.4798194301758 3.8817e-05 deg
tp 2459264.003712534898
(2021-Feb-18.50371253)
0.00018901 TDB
period 1708.592002745061
4.68
3.4566e-05
9.464e-08
d
yr
n .2106998039447781 4.2626e-09 deg/d
Q 3.341424226260764 4.5066e-08 au
  Orbit Determination Parameters
   # obs. used (total)      231  
   data-arc span      5182 days (14.19 yr)  
   first obs. used      2005-09-21  
   last obs. used      2019-11-29  
   planetary ephem.      DE431  
   SB-pert. ephem.      SB431-N16  
   condition code      0  
   norm. resid. RMS      .56659  
   source      ORB  
   producer      Otto Matic  
   solution date      2019-Dec-14 19:32:17  

Additional Information
 Earth MOID = 1.26364 au 
 Jupiter MOID = 1.66055 au 
 T_jup = 3.265 
[ show covariance matrix ]

Ephemeris | Orbit Diagram | Orbital Elements | Mission Design | Physical Parameters | Discovery Circumstances | Close-Approach Data ]

Physical Parameter Table
Parameter Symbol Value Units Sigma Reference Notes
absolute magnitude H 16.0   n/a MPO418667  

324628 (2007 BY6)          Discovered 2007-Jan-17 by Mt. Lemmon Survey at Mount Lemmon
Reference: 20120406/Numbers.arcLast Updated: 2012-04-09

[ hide close-approach data ]
Close-Approach Data   ...sorted by Date/Time (TDB)
Date/Time (TDB) Time Uncertainty
(days_HH:MM)
Body Nominal Distance (au) Minimum Distance (au) Maximum Distance (au) V-relative (km/s) V-infinity (km/s) JD (TDB) Time Uncertainty (minutes) Semi-major axis (km) Semi-minor axis (km) range-LOV angle (deg) N-sigma BP Orbit Ref. Reference Modified
1916-Feb-19 17:19 00:09 Jupiter 1.8652600358925 1.86525309205922 1.86526697981378 2.94449220245542 2.78600535242145 2420913.221420212 9.19597925709634 745.623672063194 36.564029745252 62.6524360921316 1794036.13057952 T 12 CATAB v2.0f-lin.ifort 2019-Dec-14 19:32:19 2019-Dec-14 19:32
1939-May-05 02:06 00:06 Jupiter 1.7095482164405 1.70954538289318 1.70955105010822 3.01219915058481 2.84295837265815 2429388.587272092 5.93861523600123 760.105187346503 24.2077635717508 79.2164315055519 1846250.393216 T 12 CATAB v2.0f-lin.ifort 2019-Dec-14 19:32:19 2019-Dec-14 19:32
1962-Aug-12 14:53 00:04 Jupiter 1.66685483564742 1.66685436163998 1.66685530966719 3.05147361288817 2.88013522846566 2437889.119792801 3.59963426931893 512.364014582694 22.3927408033084 88.8006394982759 2002768.07473461 T 12 CATAB v2.0f-lin.ifort 2019-Dec-14 19:32:19 2019-Dec-14 19:32
1985-Nov-15 23:52 00:02 Jupiter 1.74115334343116 1.74115232207643 1.74115436479331 3.04687299755397 2.88279220061801 2446385.494117699 1.9772549859579 238.492255455183 34.5888564098797 -80.503799004448 2301561.51181708 T 12 CATAB v2.0f-lin.ifort 2019-Dec-14 19:32:19 2019-Dec-14 19:32
2009-Jan-25 19:28 < 00:01 Jupiter 1.91739465150329 1.91739374212173 1.91739556088473 2.99898150872744 2.84787220265474 2454857.311342618 0.638023054149924 123.825922649737 43.7397676547795 -89.3922652004502 2439704.57757477 T 12 CATAB v2.0f-lin.ifort 2019-Dec-14 19:32:19 2019-Dec-14 19:32
2094-Apr-23 09:55 00:05 Jupiter 1.92830471767566 1.92830214831281 1.9283072870522 2.76708663266913 2.60350786800074 2485990.913338450 4.53275616720962 304.844206916384 43.0944812160468 63.4570844163268 1633866.67640621 T 12 CATAB v2.0f-lin.ifort 2019-Dec-14 19:32:19 2019-Dec-14 19:32
2117-Jun-25 12:06 00:05 Jupiter 1.74451997165444 1.74451791924647 1.74452202413322 2.89054686114187 2.71738745539928 2494454.004401632 5.46413398797229 601.66321362039 31.5038554456113 78.7851633797638 1676346.67203205 T 12 CATAB v2.0f-lin.ifort 2019-Dec-14 19:32:19 2019-Dec-14 19:32
2140-Sep-27 23:15 00:07 Jupiter 1.66641662425502 1.66641610443795 1.66641714411084 3.00333184771247 2.82903210581188 2502949.469078573 6.82164658880765 889.245275407226 25.3410109566832 88.3954948869975 1890783.57099539 T 12 CATAB v2.0f-lin.ifort 2019-Dec-14 19:32:19 2019-Dec-14 19:32
2164-Jan-06 19:30 00:09 Jupiter 1.70645069156195 1.70644738162713 1.70645400171114 3.0718407478387 2.90576589584249 2511450.312322534 9.10653390532461 1010.0856831849 31.905546334815 -81.1610156683867 2209057.7814879 T 12 CATAB v2.0f-lin.ifort 2019-Dec-14 19:32:19 2019-Dec-14 19:32
2187-Mar-28 16:34 00:12 Jupiter 1.84853877228766 1.84853022636436 1.84854731830774 3.096402010133 2.94470398364576 2519932.190356369 12.4291382973701 812.182397387953 66.319916313697 -58.9841704507195 2600658.19579543 T 12 CATAB v2.0f-lin.ifort 2019-Dec-14 19:32:19 2019-Dec-14 19:32
Ephemeris | Orbit Diagram | Orbital Elements | Mission Design | Physical Parameters | Discovery Circumstances | Close-Approach Data ]
ABOUT SSD CREDITS/AWARDS PRIVACY/COPYRIGHT GLOSSARY LINKS
FirstGov 2020-Jul-02 10:28 UT
(server date/time)  
NASA Home Page
Site Manager:   Ryan S. Park
Webmaster  Alan B. Chamberlin